Regional Weather Roundup
Issued by NWS

Home | Current Version | Previous Version | Text Only | Print | Product List | Glossary Off
Versions: 1 2 3 4 5 6 7 8 9 10 11 12 13 14 15 16 17 18 19 20 21 22 23 24 25 26 27 28 29 30 31 32 33 34 35 36 37 38 39 40 41 42 43 44 45 46 47 48 49 50

224
ASUS43 KBIS 162110
RWRND

NORTH DAKOTA REGIONAL WEATHER ROUNDUP
NATIONAL WEATHER SERVICE BISMARCK ND
400 PM CDT MON OCT 16 2017

NOTE: "FAIR" INDICATES FEW OR NO CLOUDS BELOW 12,000 FEET WITH NO
SIGNIFICANT WEATHER AND/OR OBSTRUCTIONS TO VISIBILITY.


NDZ001>003-009>011-017-162200-
NORTHWEST NORTH DAKOTA

CITY           SKY/WX    TMP DP  RH WIND       PRES   REMARKS
WILLISTON      CLOUDY    69  33  26 W15       29.93S
MINOT          SUNNY     67  33  28 W14       29.87S
MINOT AFB      CLOUDY    65  35  32 NW18      29.86R
$$

NDZ018>021-031>035-040>046-162200-
SOUTHWEST NORTH DAKOTA

CITY           SKY/WX    TMP DP  RH WIND       PRES   REMARKS
BISMARCK       SUNNY     74  30  19 W17G25    29.92S
DICKINSON      SUNNY     68  31  25 W18G25    29.96S
GARRISON         N/A     68  31  25 W23G37    29.90S
HETTINGER ARPT SUNNY     69  30  23 NW20      30.02F
$$

NDZ004>008-012>016-024-026-027-054-162200-
NORTHEAST NORTH DAKOTA

CITY           SKY/WX    TMP DP  RH WIND       PRES   REMARKS
GRAND FORKS    MOSUNNY   72  36  26 W14G24    29.82S
GRND FRKS AFB  SUNNY     70  34  27 W14G25    29.82S
DEVILS LAKE    SUNNY     66  36  32 W21       29.86R
$$

NDZ022-023-025-028>030-036>039-047>053-162200-
SOUTHEAST NORTH DAKOTA

CITY           SKY/WX    TMP DP  RH WIND       PRES   REMARKS
FARGO          SUNNY     70  38  31 SW22G31   29.86F
JAMESTOWN      SUNNY     70  34  26 W17G28    29.88S
$$





USA.gov is the U.S. government's official web portal to all federal, state and local government web resources and services.